Change the Weather History Date:

Friday, July 12, 2013

  Actual Average (KLCI) Record (KLCI)
Temperature  
Mean Temperature 68 °F -  
Max Temperature 81 °F 80 °F 92 °F (1987)
Min Temperature 54 °F 58 °F 48 °F (2002)
Cooling Degree Days 2    
Growing Degree Days 18 (Base 50)    
Moisture  
Dew Point 58 °F    
Average Humidity 73    
Maximum Humidity 97    
Minimum Humidity 41    
Precipitation  
Precipitation 0.00 in - - ()
Sea Level Pressure  
Sea Level Pressure 30.12 in    
Wind  
Wind Speed 1 mph (ESE)    
Max Wind Speed 7 mph    
Max Gust Speed -    
Visibility 9 miles    
Events Fog    
Averages and records for this station are not official NWS values.
T = Trace of Precipitation, MM = Missing Value Source: NWS Daily Summary

Daily Weather History Graph

Daily Weather History Graph

Search for Another Location

Airport or City:

Trip Planner

Search our weather history database for the weather conditions in past years. The results will help you decide how hot, cold, wet, or windy it might be!

Date:

Astronomy

Jul. 12, 2013 Rise Set
Actual Time 5:16 AM EDT 8:28 PM EDT
Civil Twilight 4:41 AM EDT 9:03 PM EDT
Nautical Twilight 3:56 AM EDT 9:48 PM EDT
Astronomical Twilight 3:01 AM EDT 10:43 PM EDT
Moon 9:40 AM EDT (7/12) 10:26 PM EDT (7/12)
Length of Visible Light 16h 21m
Length of Day
15h 11m
Waxing Crescent, 17% of the Moon is Illuminated
Jul 12
Waxing Crescent
Jul 15
First Quarter
Jul 22
Full
Jul 29
Last Quarter
Aug 6
New

Hourly Weather History & Observations

Time (EDT) Temp. Heat Index Dew Point Humidity Pressure Visibility Wind Dir Wind Speed Gust Speed Precip Events Conditions
12:15 AM 61.9 °F - 58.3 °F 88% 30.00 in 10.0 mi Calm Calm - N/A   Clear
12:35 AM 61.3 °F - 57.6 °F 87% 30.00 in 10.0 mi Calm Calm - N/A   Clear
12:55 AM 60.3 °F - 58.3 °F 93% 30.00 in 10.0 mi Calm Calm - N/A   Clear
1:15 AM 59.7 °F - 57.7 °F 93% 30.00 in 10.0 mi Calm Calm - N/A   Clear
1:35 AM 59.0 °F - 56.8 °F 93% 30.00 in 10.0 mi Calm Calm - N/A   Clear
1:55 AM 59.0 °F - 57.4 °F 94% 30.01 in 10.0 mi Calm Calm - N/A   Clear
2:15 AM 57.7 °F - 56.3 °F 95% 30.02 in 7.0 mi Calm Calm - N/A   Clear
2:35 AM 58.1 °F - 56.8 °F 96% 30.02 in 5.0 mi Calm Calm - N/A   Clear
2:55 AM 57.4 °F - 56.3 °F 96% 30.03 in 7.0 mi Calm Calm - N/A   Clear
3:15 AM 57.2 °F - 56.3 °F 97% 30.04 in 7.0 mi Calm Calm - N/A   Clear
3:35 AM 56.8 °F - 55.8 °F 96% 30.04 in 2.5 mi Calm Calm - N/A   Clear
3:55 AM 56.3 °F - 55.4 °F 97% 30.05 in 7.0 mi Calm Calm - N/A   Clear
4:15 AM 55.8 °F - 54.9 °F 97% 30.06 in 5.0 mi Calm Calm - N/A   Clear
4:35 AM 55.8 °F - 54.7 °F 96% 30.06 in 7.0 mi Calm Calm - N/A   Clear
4:55 AM 55.4 °F - 54.3 °F 96% 30.07 in 2.5 mi Calm Calm - N/A   Clear
5:15 AM 55.0 °F - 54.1 °F 97% 30.08 in 7.0 mi Calm Calm - N/A   Clear
5:35 AM 54.5 °F - 53.6 °F 97% 30.08 in 1.2 mi Calm Calm - N/A   Mist
5:55 AM 54.5 °F - 53.6 °F 97% 30.09 in 3.0 mi Calm Calm - N/A   Clear
6:15 AM 54.9 °F - 54.0 °F 97% 30.10 in 0.5 mi Calm Calm - N/A Fog Fog
6:35 AM 55.8 °F - 54.9 °F 97% 30.11 in 0.5 mi Calm Calm - N/A Fog Fog
6:55 AM 56.7 °F - 55.8 °F 97% 30.11 in 1.2 mi Calm Calm - N/A   Mostly Cloudy
7:15 AM 57.6 °F - 56.7 °F 97% 30.12 in 10.0 mi Calm Calm - N/A   Scattered Clouds
7:35 AM 58.6 °F - 57.7 °F 97% 30.12 in 10.0 mi Calm Calm - N/A   Scattered Clouds
7:55 AM 59.5 °F - 58.3 °F 96% 30.12 in 10.0 mi Calm Calm - N/A   Clear
8:15 AM 61.2 °F - 57.2 °F 87% 30.13 in 10.0 mi Calm Calm - N/A   Clear
8:35 AM 62.6 °F - 58.1 °F 85% 30.13 in 10.0 mi Calm Calm - N/A   Clear
8:55 AM 64.0 °F - 58.3 °F 82% 30.14 in 10.0 mi Calm Calm - N/A   Clear
9:15 AM 65.8 °F - 58.3 °F 77% 30.14 in 10.0 mi Calm Calm - N/A   Clear
9:35 AM 67.8 °F - 58.1 °F 71% 30.14 in 10.0 mi Calm Calm - N/A   Clear
9:55 AM 69.8 °F - 57.9 °F 66% 30.14 in 10.0 mi Calm Calm - N/A   Clear
10:15 AM 70.5 °F - 57.7 °F 64% 30.14 in 10.0 mi Calm Calm - N/A   Clear
10:35 AM 71.6 °F - 57.9 °F 62% 30.14 in 10.0 mi Calm Calm - N/A   Clear
10:55 AM 73.6 °F - 57.0 °F 56% 30.14 in 10.0 mi East 3.5 mph - N/A   Clear
11:15 AM 74.3 °F - 57.0 °F 55% 30.15 in 10.0 mi Calm Calm - N/A   Clear
11:35 AM 75.2 °F - 57.2 °F 53% 30.14 in 10.0 mi SE 4.6 mph - N/A   Clear
11:55 AM 75.6 °F - 55.0 °F 49% 30.14 in 10.0 mi Calm Calm - N/A   Clear
12:15 PM 76.3 °F - 56.1 °F 50% 30.14 in 10.0 mi East 5.8 mph - N/A   Clear
12:35 PM 76.6 °F - 54.7 °F 46% 30.14 in 10.0 mi East 3.5 mph - N/A   Clear
12:55 PM 77.2 °F - 54.5 °F 45% 30.14 in 10.0 mi SE 3.5 mph - N/A   Clear
1:15 PM 77.2 °F - 54.3 °F 45% 30.13 in 10.0 mi ENE 5.8 mph - N/A   Clear
1:35 PM 78.6 °F - 54.5 °F 43% 30.13 in 10.0 mi Calm Calm - N/A   Clear
1:55 PM 78.6 °F - 52.9 °F 41% 30.13 in 10.0 mi SE 3.5 mph - N/A   Clear
2:15 PM 79.5 °F - 57.4 °F 47% 30.13 in 10.0 mi SSW 3.5 mph - N/A   Clear
2:35 PM 79.3 °F - 57.6 °F 47% 30.12 in 10.0 mi Calm Calm - N/A   Clear
2:55 PM 79.9 °F - 58.8 °F 48% 30.13 in 10.0 mi Calm Calm - N/A   Clear
3:15 PM 80.4 °F 80.8 °F 58.1 °F 46% 30.13 in 10.0 mi SSE 4.6 mph - N/A   Clear
3:35 PM 80.1 °F 80.5 °F 57.6 °F 46% 30.12 in 10.0 mi ESE 3.5 mph - N/A   Scattered Clouds
3:55 PM 79.7 °F - 57.4 °F 46% 30.12 in 10.0 mi East 6.9 mph - N/A   Clear
4:15 PM 81.0 °F 81.2 °F 58.3 °F 46% 30.12 in 10.0 mi East 6.9 mph - N/A   Clear
4:35 PM 80.2 °F 80.6 °F 57.6 °F 46% 30.12 in 10.0 mi SSE 4.6 mph - N/A   Clear
4:55 PM 81.0 °F 81.2 °F 58.1 °F 46% 30.13 in 10.0 mi ESE 4.6 mph - N/A   Clear
5:15 PM 80.6 °F 80.8 °F 57.6 °F 45% 30.13 in 10.0 mi East 4.6 mph - N/A   Clear
5:35 PM 80.2 °F 80.6 °F 57.9 °F 46% 30.13 in 10.0 mi East 5.8 mph - N/A   Clear
5:55 PM 79.7 °F - 58.1 °F 47% 30.13 in 10.0 mi East 5.8 mph - N/A   Clear
6:15 PM 78.1 °F - 59.5 °F 53% 30.13 in 10.0 mi East 3.5 mph - N/A   Clear
6:35 PM 78.6 °F - 58.3 °F 50% 30.13 in 10.0 mi East 4.6 mph - N/A   Clear
6:55 PM 77.9 °F - 59.4 °F 53% 30.13 in 10.0 mi Calm Calm - N/A   Clear
7:15 PM 77.5 °F - 60.3 °F 55% 30.14 in 10.0 mi ESE 3.5 mph - N/A   Clear
7:35 PM 76.6 °F - 59.4 °F 55% 30.14 in 10.0 mi East 3.5 mph - N/A   Clear
7:55 PM 75.0 °F - 61.2 °F 62% 30.14 in 10.0 mi Calm Calm - N/A   Clear
8:15 PM 72.3 °F - 64.4 °F 76% 30.15 in 10.0 mi Calm Calm - N/A   Clear
8:35 PM 70.7 °F - 64.6 °F 81% 30.16 in 10.0 mi Calm Calm - N/A   Clear
8:55 PM 68.7 °F - 64.6 °F 87% 30.16 in 10.0 mi Calm Calm - N/A   Clear
9:15 PM 67.5 °F - 64.2 °F 89% 30.17 in 10.0 mi Calm Calm - N/A   Clear
9:35 PM 68.0 °F - 61.7 °F 80% 30.19 in 10.0 mi East 3.5 mph - N/A   Clear
9:55 PM 68.5 °F - 61.7 °F 79% 30.19 in 10.0 mi East 5.8 mph - N/A   Clear
10:15 PM 67.6 °F - 61.5 °F 81% 30.20 in 10.0 mi East 6.9 mph - N/A   Clear
10:35 PM 67.6 °F - 61.7 °F 81% 30.21 in 10.0 mi East 4.6 mph - N/A   Clear
10:55 PM 66.6 °F - 61.7 °F 84% 30.21 in 10.0 mi NE 4.6 mph - N/A   Clear
11:15 PM 66.0 °F - 61.9 °F 86% 30.22 in 10.0 mi Calm Calm - N/A   Clear
11:35 PM 64.8 °F - 62.2 °F 92% 30.22 in 10.0 mi Calm Calm - N/A   Clear
11:55 PM 64.2 °F - 61.7 °F 91% 30.23 in 10.0 mi Calm Calm - N/A   Clear